Sauk Centre, MN

11:55 AM CDT on August 31, 2016 (GMT -0500)
Sauk Centre

Weather History for KD39 - November, 2013

Change the Weather History Date:

Tuesday, November 5, 2013

  Actual Average (KGHW) Record (KGHW)
Temperature  
Mean Temperature 30 °F -  
Max Temperature 34 °F 43 °F 73 °F (2001)
Min Temperature 25 °F 26 °F -6 °F (1951)
Degree Days  
Heating Degree Days 36    
Moisture  
Dew Point 24 °F    
Average Humidity 75    
Maximum Humidity 90    
Minimum Humidity 57    
Precipitation  
Precipitation 0.00 in - - ()
Sea Level Pressure  
Sea Level Pressure 30.15 in    
Wind  
Wind Speed 4 mph (WNW)    
Max Wind Speed 9 mph    
Max Gust Speed -    
Visibility 10 miles    
Events      
Averages and records for this station are not official NWS values.
T = Trace of Precipitation, MM = Missing Value Source: NWS Daily Summary

Daily Weather History Graph

Daily Weather History Graph

Search for Another Location

Airport or City:

Trip Planner

Search our weather history database for the weather conditions in past years. The results will help you decide how hot, cold, wet, or windy it might be!

Date:

Astronomy

Nov. 05, 2013 Rise Set
Actual Time 7:05 AM CST 5:00 PM CST
Civil Twilight 6:34 AM CST 5:31 PM CST
Nautical Twilight 5:58 AM CST 6:07 PM CST
Astronomical Twilight 5:24 AM CST 6:41 PM CST
Moon 9:26 AM CST (11/5) 6:58 PM CST (11/5)
Length of Visible Light 10h 57m
Length of Day
9h 54m
Waxing Crescent, 7% of the Moon is Illuminated
Nov 5
Waxing Crescent
Nov 9
First Quarter
Nov 17
Full
Nov 25
Last Quarter
Dec 2
New

Hourly Weather History & Observations

Time (CST) Temp. Windchill Dew Point Humidity Pressure Visibility Wind Dir Wind Speed Gust Speed Precip Events Conditions
12:10 AM 29.3 °F 24.3 °F 25.7 °F 86% 30.12 in 10.0 mi SW 4.6 mph - N/A   Clear
12:30 AM 29.7 °F 24.7 °F 25.5 °F 85% 30.12 in 10.0 mi SW 4.6 mph - N/A   Clear
12:50 AM 29.3 °F 25.6 °F 25.3 °F 85% 30.13 in 10.0 mi WSW 3.5 mph - N/A   Clear
1:10 AM 29.1 °F 24.1 °F 25.3 °F 86% 30.13 in 10.0 mi SSW 4.6 mph - N/A   Clear
1:31 AM 28.9 °F 25.2 °F 25.2 °F 86% 30.14 in 10.0 mi SW 3.5 mph - N/A   Clear
1:50 AM 28.0 °F 22.8 °F 24.6 °F 87% 30.13 in 10.0 mi SW 4.6 mph - N/A   Clear
2:10 AM 27.7 °F 21.3 °F 24.6 °F 88% 30.14 in 10.0 mi SW 5.8 mph - N/A   Clear
2:31 AM 27.3 °F 20.9 °F 24.4 °F 89% 30.14 in 10.0 mi SW 5.8 mph - N/A   Clear
2:50 AM 26.6 °F 22.6 °F 23.9 °F 90% 30.14 in 10.0 mi SSW 3.5 mph - N/A   Clear
3:10 AM 27.3 °F 22.0 °F 24.3 °F 88% 30.15 in 10.0 mi WSW 4.6 mph - N/A   Clear
3:30 AM 26.6 °F 21.2 °F 23.5 °F 88% 30.16 in 10.0 mi West 4.6 mph - N/A   Clear
3:50 AM 27.5 °F 21.1 °F 23.7 °F 86% 30.16 in 10.0 mi West 5.8 mph - N/A   Clear
4:10 AM 27.5 °F 21.1 °F 23.2 °F 84% 30.16 in 10.0 mi West 5.8 mph - N/A   Clear
4:30 AM 27.0 °F 21.6 °F 23.0 °F 85% 30.17 in 10.0 mi West 4.6 mph - N/A   Clear
4:50 AM 26.4 °F - 22.6 °F 86% 30.16 in 10.0 mi Calm Calm - N/A   Clear
5:10 AM 27.0 °F - 23.0 °F 85% 30.16 in 10.0 mi Calm Calm - N/A   Clear
5:30 AM 26.6 °F - 23.0 °F 86% 30.16 in 10.0 mi Calm Calm - N/A   Scattered Clouds
5:50 AM 26.2 °F - 22.6 °F 86% 30.17 in 10.0 mi Calm Calm - N/A   Scattered Clouds
6:10 AM 25.7 °F 20.1 °F 22.3 °F 87% 30.15 in 10.0 mi NW 4.6 mph - N/A   Mostly Cloudy
6:30 AM 26.6 °F - 23.0 °F 86% 30.17 in 10.0 mi Calm Calm - N/A   Overcast
6:50 AM 26.6 °F 21.2 °F 23.7 °F 89% 30.17 in 10.0 mi West 4.6 mph - N/A   Overcast
7:10 AM 27.3 °F 23.4 °F 23.9 °F 87% 30.16 in 10.0 mi WNW 3.5 mph - N/A   Mostly Cloudy
7:30 AM 27.9 °F - 24.1 °F 86% 30.17 in 10.0 mi Calm Calm - N/A   Scattered Clouds
7:50 AM 28.8 °F - 23.5 °F 81% 30.17 in 10.0 mi Calm Calm - N/A   Clear
8:11 AM 29.1 °F - 24.3 °F 82% 30.17 in 10.0 mi Calm Calm - N/A   Clear
8:30 AM 29.3 °F - 25.7 °F 86% 30.17 in 10.0 mi Calm Calm - N/A   Clear
8:50 AM 30.2 °F 26.7 °F 26.2 °F 85% 30.19 in 10.0 mi South 3.5 mph - N/A   Mostly Cloudy
9:11 AM 31.1 °F 27.7 °F 25.5 °F 80% 30.19 in 10.0 mi South 3.5 mph - N/A   Overcast
9:30 AM 32.0 °F - 24.8 °F 75% 30.20 in 10.0 mi Calm Calm - N/A   Mostly Cloudy
9:50 AM 32.7 °F - 22.8 °F 67% 30.21 in 10.0 mi Calm Calm - N/A   Clear
10:10 AM 32.9 °F 28.5 °F 23.2 °F 67% 30.22 in 10.0 mi SSW 4.6 mph - N/A   Clear
10:30 AM 33.1 °F 26.9 °F 23.5 °F 68% 30.23 in 10.0 mi SSW 6.9 mph - N/A   Clear
10:50 AM 33.4 °F 28.1 °F 23.4 °F 67% 30.24 in 10.0 mi SW 5.8 mph - N/A   Clear
11:10 AM 34.0 °F 28.0 °F 23.4 °F 65% 30.25 in 10.0 mi SW 6.9 mph - N/A   Clear
11:31 AM 34.0 °F 26.6 °F 23.0 °F 64% 30.25 in 10.0 mi SW 9.2 mph - N/A   Mostly Cloudy
11:50 AM 34.3 °F 29.2 °F 23.4 °F 64% 30.23 in 10.0 mi SSW 5.8 mph - N/A   Overcast
12:10 PM 34.5 °F 29.4 °F 23.0 °F 63% 30.22 in 10.0 mi SSW 5.8 mph - N/A   Overcast
12:31 PM 34.3 °F 29.2 °F 23.4 °F 64% 30.21 in 7.0 mi SW 5.8 mph - N/A   Overcast
12:50 PM 34.3 °F 31.4 °F 24.1 °F 66% 30.21 in 10.0 mi WSW 3.5 mph - N/A   Overcast
1:10 PM 34.7 °F 30.6 °F 23.7 °F 64% 30.19 in 10.0 mi West 4.6 mph - N/A   Overcast
1:31 PM 34.7 °F 30.6 °F 21.9 °F 60% 30.17 in 10.0 mi WNW 4.6 mph - N/A   Overcast
1:50 PM 34.7 °F 30.6 °F 21.4 °F 58% 30.16 in 10.0 mi WNW 4.6 mph - N/A   Overcast
2:10 PM 34.7 °F 31.8 °F 20.8 °F 57% 30.15 in 10.0 mi NW 3.5 mph - N/A   Overcast
2:31 PM 34.7 °F 29.6 °F 21.9 °F 60% 30.13 in 10.0 mi NNW 5.8 mph - N/A   Overcast
2:50 PM 34.2 °F 31.2 °F 22.8 °F 63% 30.13 in 10.0 mi NNW 3.5 mph - N/A   Overcast
3:10 PM 34.2 °F 30.0 °F 23.5 °F 65% 30.13 in 10.0 mi North 4.6 mph - N/A   Overcast
3:30 PM 34.2 °F 29.0 °F 22.6 °F 63% 30.13 in 10.0 mi NNW 5.8 mph - N/A   Overcast
3:50 PM 34.2 °F 31.2 °F 22.1 °F 61% 30.13 in 10.0 mi North 3.5 mph - N/A   Overcast
4:10 PM 34.0 °F 31.0 °F 23.5 °F 66% 30.13 in 10.0 mi North 3.5 mph - N/A   Overcast
4:30 PM 33.8 °F 29.6 °F 23.4 °F 66% 30.12 in 10.0 mi North 4.6 mph - N/A   Overcast
4:50 PM 33.3 °F 27.9 °F 22.8 °F 66% 30.11 in 10.0 mi NNW 5.8 mph - N/A   Overcast
5:10 PM 32.9 °F - 22.8 °F 66% 30.12 in 10.0 mi Calm Calm - N/A   Overcast
5:30 PM 32.9 °F - 23.0 °F 67% 30.11 in 10.0 mi Calm Calm - N/A   Overcast
5:50 PM 32.9 °F - 23.2 °F 67% 30.12 in 10.0 mi Calm Calm - N/A   Overcast
6:11 PM 32.9 °F 29.8 °F 23.2 °F 67% 30.12 in 10.0 mi NNW 3.5 mph - N/A   Overcast
6:30 PM 32.2 °F 28.9 °F 24.6 °F 74% 30.11 in 10.0 mi North 3.5 mph - N/A   Overcast
6:50 PM 32.2 °F - 24.1 °F 72% 30.11 in 10.0 mi Calm Calm - N/A   Overcast
7:10 PM 32.5 °F - 23.5 °F 69% 30.10 in 10.0 mi Calm Calm - N/A   Overcast
7:30 PM 32.2 °F 28.9 °F 24.6 °F 74% 30.10 in 10.0 mi North 3.5 mph - N/A   Overcast
7:50 PM 32.2 °F 28.9 °F 24.1 °F 72% 30.09 in 10.0 mi North 3.5 mph - N/A   Overcast
8:10 PM 32.0 °F 28.7 °F 24.6 °F 74% 30.10 in 10.0 mi North 3.5 mph - N/A   Overcast
8:30 PM 32.0 °F 28.7 °F 23.9 °F 72% 30.09 in 10.0 mi North 3.5 mph - N/A   Overcast
8:50 PM 32.0 °F 27.5 °F 23.7 °F 71% 30.09 in 10.0 mi NNW 4.6 mph - N/A   Overcast
9:10 PM 32.0 °F 24.8 °F 23.2 °F 70% 30.09 in 10.0 mi NNW 8.1 mph - N/A   Overcast
9:30 PM 32.0 °F 25.6 °F 23.7 °F 71% 30.09 in 10.0 mi North 6.9 mph - N/A   Overcast
9:51 PM 32.0 °F 24.8 °F 23.2 °F 70% 30.09 in 10.0 mi NNW 8.1 mph - N/A   Overcast
10:10 PM 32.0 °F 24.8 °F 23.5 °F 71% 30.09 in 10.0 mi NNW 8.1 mph - N/A   Overcast
10:30 PM 32.0 °F 25.6 °F 23.7 °F 71% 30.09 in 10.0 mi North 6.9 mph - N/A   Overcast
10:51 PM 32.0 °F 25.6 °F 23.9 °F 72% 30.09 in 10.0 mi NNW 6.9 mph - N/A   Overcast
11:10 PM 32.0 °F 26.4 °F 23.9 °F 72% 30.08 in 10.0 mi NNW 5.8 mph - N/A   Overcast
11:30 PM 32.0 °F 26.4 °F 24.1 °F 73% 30.08 in 10.0 mi North 5.8 mph - N/A   Overcast
11:50 PM 31.8 °F 26.2 °F 24.1 °F 73% 30.08 in 10.0 mi NNW 5.8 mph - N/A   Overcast